This demonstration page uses our WeatherBlox Daily Observations layout. Learn more.

Left ArrowRight Arrow

39.12711, -84.51439

Hourly Observations for October 12, 2021

Temp ( °F °C ) Dew Point ( °F °C ) Humidity (%) Winds ( mph kmh ) Pressure ( in mb ) Visibility ( mi km ) Precip ( " mm )
12:53 am 00:53 Cloudy 72 22.2 63 17.2 73 73 S 13 20 29.86 1011 10 16 0.00 0.00
1:53 am 01:53 Cloudy 72 22.2 63 17.2 73 73 S 10 17 29.87 1012 10 16 0.00 0.00
2:53 am 02:53 Partly Cloudy 70 21.1 63 17.2 79 79 S 8 13 29.88 1012 10 16 0.00 0.00
3:53 am 03:53 Mostly Cloudy 70 21.1 63 17.2 79 79 S 8 13 29.89 1012 10 16 0.00 0.00
4:53 am 04:53 Partly Cloudy 69 20.6 63 17.2 81 81 S 9 15 29.90 1012 10 16 0.00 0.00
5:53 am 05:53 Clear 66 18.9 63 17.2 90 90 SSW 8 13 29.91 1013 10 16 0.00 0.00
6:53 am 06:53 Mostly Clear 65 18.3 63 17.2 93 93 SSW 7 11 29.92 1013 10 16 0.00 0.00
7:53 am 07:53 Partly Cloudy 65 18.3 63 17.2 93 93 SSW 6 9 29.95 1014 10 16 0.00 0.00
8:53 am 08:53 Partly Cloudy 68 20 65 18.3 90 90 S 6 9 29.96 1015 10 16 0.00 0.00
9:15 am 09:15 Mostly Cloudy 69 20.6 66 18.9 90 90 S 9 15 29.97 1015 10 16 0.00 0.00
9:53 am 09:53 Mostly Cloudy 69 20.6 64 17.8 84 84 SW 14 22 29.97 1015 10 16 0.00 0.00
10:53 am 10:53 Mostly Cloudy 71 21.7 62 16.7 73 73 SW 8 13 29.97 1015 10 16 0.00 0.00
11:53 am 11:53 Mostly Cloudy 74 23.3 62 16.7 67 67 SW 13 20 29.96 1015 10 16 0.00 0.00
12:53 pm 12:53 Partly Cloudy 77 25 62 16.7 60 60 SW 12 19 29.96 1014 10 16 0.00 0.00
1:53 pm 13:53 Mostly Cloudy 78 25.6 62 16.7 58 58 SSW 15 24 29.94 1014 10 16 0.00 0.00
2:53 pm 14:53 Mostly Cloudy 77 25 61 16.1 58 58 SSW 15 24 29.94 1014 10 16 0.00 0.00
3:53 pm 15:53 Mostly Cloudy 77 25 62 16.7 60 60 WSW 7 11 29.94 1014 10 16 0.00 0.00
4:53 pm 16:53 Mostly Cloudy 75 23.9 61 16.1 62 62 WSW 10 17 29.95 1014 10 16 0.00 0.00
5:53 pm 17:53 Mostly Cloudy 74 23.3 60 15.6 62 62 W 10 17 29.96 1015 10 16 0.00 0.00
6:53 pm 18:53 Mostly Sunny 71 21.7 60 15.6 68 68 W 8 13 29.98 1015 10 16 0.00 0.00
7:53 pm 19:53 Clear 67 19.4 60 15.6 79 79 NW 12 19 30.01 1016 10 16 0.00 0.00
8:53 pm 20:53 Clear 65 18.3 59 15 81 81 NW 8 13 30.04 1017 10 16 0.00 0.00
9:53 pm 21:53 Clear 64 17.8 58 14.4 81 81 NW 5 7 30.04 1017 10 16 0.00 0.00
10:53 pm 22:53 Clear 62 16.7 58 14.4 86 86 Calm 30.04 1017 10 16 0.00 0.00
11:53 pm 23:53 Clear 58 14.4 58 14.4 100 100 Calm 30.04 1017 10 16 0.00 0.00

Powered by AerisWeather